[[{"header":{"parameterUnit":"m.s-1","parameterCategory":1,"la1":30.2991,"la2":30.254,"lo1":-89.0895,"lo2":-89.0444,"dy":0.0017,"dx":0.0017,"nx":28,"ny":28,"refTime":"2023-09-23T03:00:00:Z","depth":0,"parameterNumber":2,"parameterNumberName":"U-component_of_WINDS"},"data":[0,0,0,0,0,0,0,0,0,0,0,0,0,0,0,0,0,0,0,0,0,0,0,0,0,0,0,0,0,0,0,0,0,0,0,0,0,0,0,0,0,0,0,0,0,0,0,0,0,0,0,0,0,0,0,0,0,0,-1.3953,-1.3953,0,-1.4002,-1.4002,-1.4003,-1.3997,-1.3996,-1.3995,-1.3995,-1.4044,-1.4046,-1.4048,0,0,0,0,0,0,0,0,0,0,0,0,0,-1.3854,-1.3856,-1.3953,-1.3954,-1.3954,-1.4001,-1.4002,-1.4003,-1.3997,-1.3996,-1.3995,-1.3994,-1.4043,-1.4046,-1.4048,0,0,0,0,0,0,0,0,0,0,0,0,0,-1.3899,-1.3857,-1.3953,-1.3957,-1.3958,-1.4001,-1.4002,-1.4003,-1.3997,-1.3996,-1.3995,-1.3994,-1.4042,-1.4045,-1.4048,-1.4091,0,0,-1.4058,-1.4059,0,0,0,0,0,0,0,0,-1.3897,-1.3903,-1.3956,-1.3957,-1.3958,-1.3992,-1.3985,-1.4032,-1.3997,-1.3982,-1.3995,-1.3993,-1.4028,-1.4032,-1.4043,-1.4093,-1.4095,-1.4058,-1.406,-1.4061,-1.4062,0,0,0,0,0,0,0,-1.3894,-1.3901,-1.3972,-1.3957,-1.3958,-1.3956,-1.3961,-1.3994,-1.4011,-1.3983,-1.3983,-1.3989,-1.4028,-1.404,-1.4045,-1.4096,-1.4058,-1.4061,-1.4063,-1.4064,-1.4182,-1.4183,0,0,0,0,0,0,-1.389,-1.3898,-1.3971,-1.3974,-1.3924,-1.3959,-1.3965,-1.3982,-1.401,-1.4014,-1.399,-1.3989,-1.4036,-1.4041,-1.4046,-1.4097,-1.4061,-1.4064,-1.4066,-1.4181,-1.4182,-1.4184,0,0,0,0,0,0,-1.3888,-1.3896,-1.3969,-1.3936,-1.3945,-1.3962,-1.3982,-1.3984,-1.3996,-1.4015,-1.4018,-1.4,-1.4035,-1.4042,-1.408,-1.4099,-1.4065,-1.4068,-1.4179,-1.4181,-1.4183,-1.42,0,0,0,0,0,0,-1.3885,-1.3895,-1.3912,-1.3936,-1.3947,-1.4002,-1.3983,-1.3986,-1.4002,-1.4,-1.4025,-1.4028,-1.4035,-1.4075,-1.4083,-1.4103,-1.4071,-1.4178,-1.418,-1.4183,-1.4198,-1.4202,-1.4206,0,0,0,0,0,-1.3881,-1.3915,-1.3913,-1.3922,-1.3968,-1.4003,-1.4009,-1.4015,-1.4003,-1.402,-1.4032,-1.4028,-1.4096,-1.4079,-1.4088,-1.4109,-1.4176,-1.4179,-1.4182,-1.4196,-1.4202,-1.4206,0,0,0,0,0,0,-1.3892,-1.3918,-1.3916,-1.3959,-1.3979,-1.4002,-1.4023,-1.4021,-1.4044,-1.4042,-1.4049,-1.4055,-1.4093,-1.4105,-1.4086,-1.4151,-1.4134,-1.4139,-1.4142,-1.4147,-1.4151,-1.4148,-1.4073,0,0,0,0,0,-1.39,-1.3926,-1.3947,-1.3983,-1.3993,-1.4006,-1.4021,-1.4025,-1.4045,-1.4054,-1.4069,-1.4089,-1.4115,-1.4132,-1.4156,-1.4199,-1.4205,-1.4218,-1.4222,-1.4226,-1.423,-1.4253,-1.4259,-1.4193,-1.4193,-1.4193,0,0,-1.3915,-1.3933,-1.3949,-1.3985,-1.4001,-1.4028,-1.4013,-1.4042,-1.4062,-1.4058,-1.4095,-1.4106,-1.4129,-1.417,-1.4188,-1.418,-1.4249,-1.4229,-1.4232,-1.4234,-1.4257,-1.4263,-1.4268,-1.4195,-1.4195,-1.4195,0,0,-1.3957,-1.3973,-1.4004,-1.402,-1.4044,-1.4053,-1.406,-1.4084,-1.4091,-1.4128,-1.4125,-1.4149,-1.4193,-1.421,-1.4224,-1.4271,-1.4268,-1.4279,-1.4301,-1.4324,-1.4329,-1.4334,-1.435,-1.4356,-1.4283,-1.4283,-1.4283,0,-1.3974,-1.4014,-1.4021,-1.405,-1.4066,-1.4063,-1.4095,-1.411,-1.4141,-1.4152,-1.4143,-1.4198,-1.4213,-1.4257,-1.4269,-1.428,-1.4289,-1.4277,-1.4328,-1.4332,-1.4337,-1.4353,-1.4359,-1.4285,-1.4284,-1.4284,-1.4284,0,-1.4033,-1.4061,-1.4083,-1.4113,-1.4131,-1.4162,-1.4172,-1.419,-1.4191,-1.4201,-1.4238,-1.4256,-1.4284,-1.4295,-1.4297,-1.4339,-1.4334,-1.4326,-1.431,-1.4344,-1.4359,-1.4366,-1.4286,-1.4286,-1.4285,-1.4285,0,0,-1.4084,-1.4116,-1.4124,-1.4138,-1.4164,-1.4185,-1.4215,-1.4243,-1.4258,-1.4279,-1.4304,-1.4341,-1.4334,-1.435,-1.4354,-1.4374,-1.441,-1.4364,-1.4364,-1.4372,-1.4457,-1.4463,-1.447,-1.4408,-1.4409,-1.441,-1.4455,0,-1.4128,-1.4181,-1.4188,-1.4235,-1.4261,-1.4258,-1.4284,-1.4303,-1.4312,-1.4335,-1.4345,-1.4372,-1.4361,-1.437,-1.439,-1.4401,-1.4427,-1.4398,-1.4431,-1.4432,-1.4425,-1.4478,-1.4484,-1.4526,-1.4461,-1.4462,-1.4463,0,-1.4188,-1.421,-1.426,-1.4282,-1.4293,-1.4316,-1.4342,-1.4364,-1.4385,-1.439,-1.4408,-1.4409,-1.4439,-1.4421,-1.4463,-1.4443,-1.4457,-1.4465,-1.4466,-1.447,-1.445,-1.4483,-1.454,-1.4546,-1.4473,-1.4472,-1.4471,0,-1.4219,-1.4263,-1.4298,-1.4309,-1.4336,-1.4352,-1.4364,-1.4384,-1.44,-1.4422,-1.4432,-1.4458,-1.4472,-1.4491,-1.4499,-1.4485,-1.454,-1.4523,-1.4545,-1.4545,-1.4557,-1.4556,-1.4617,-1.4566,-1.4566,-1.4566,-1.4566,0,-1.4269,-1.4299,-1.4312,-1.4334,-1.4368,-1.4375,-1.4408,-1.4419,-1.4436,-1.446,-1.4459,-1.4481,-1.449,-1.4513,-1.4519,-1.4553,-1.4559,-1.4564,-1.4565,-1.4564,-1.4563,-1.4573,-1.457,-1.4568,-1.4567,-1.4567,-1.4567,0,-1.431,-1.432,-1.4359,-1.438,-1.4387,-1.4411,-1.4429,-1.445,-1.4459,-1.4488,-1.4496,-1.451,-1.4537,-1.4546,-1.458,-1.4584,-1.4623,-1.4621,-1.4616,-1.4616,-1.4637,-1.4635,-1.4706,-1.4716,-1.4659,-1.4659,-1.466,0,-1.4341,-1.4364,-1.4389,-1.4404,-1.4417,-1.4442,-1.4458,-1.4465,-1.4482,-1.4507,-1.4525,-1.4552,-1.4574,-1.4618,-1.4631,-1.4656,-1.4656,-1.4679,-1.4659,-1.4657,-1.4656,-1.4654,-1.4656,-1.4682,-1.4683,-1.4683,-1.4684,0,-1.4394,-1.4398,-1.4422,-1.4447,-1.4466,-1.4487,-1.4506,-1.4519,-1.4529,-1.4548,-1.4576,-1.4593,-1.4627,-1.4654,-1.4679,-1.4691,-1.4689,-1.469,-1.4696,-1.4695,-1.4691,-1.4693,-1.4625,-1.4688,-1.4688,-1.4687,-1.4687,-1.4687,-1.4431,-1.4452,-1.4472,-1.4498,-1.4513,-1.4532,-1.4552,-1.4563,-1.4587,-1.4615,-1.4618,-1.4647,-1.4667,-1.4701,-1.4714,-1.4738,-1.4731,-1.4741,-1.4743,-1.4745,-1.4747,-1.4687,-1.4742,-1.4742,-1.4742,-1.4742,-1.4742,0,-1.4484,-1.4497,-1.4521,-1.4548,-1.4569,-1.4565,-1.4586,-1.4604,-1.463,-1.4649,-1.467,-1.4702,-1.4728,-1.4743,-1.4769,-1.4784,-1.4784,-1.4791,-1.479,-1.4792,-1.4751,-1.4743,-1.4791,-1.4791,-1.4791,-1.4791,-1.4791,-1.4791,-1.4514,-1.4549,-1.4555,-1.4596,-1.4609,-1.4638,-1.4651,-1.4667,-1.4682,-1.4718,-1.4739,-1.4748,-1.4765,-1.4792,-1.4816,-1.4819,-1.4829,-1.4836,-1.4839,-1.48,-1.4795,-1.4791,-1.4783,-1.4838,-1.4838,-1.4879,-1.4879,-1.4879]},{"header":{"parameterUnit":"m.s-1","parameterCategory":1,"la1":30.2991,"la2":30.254,"lo1":-89.0895,"lo2":-89.0444,"dy":0.0017,"dx":0.0017,"nx":28,"ny":28,"refTime":"2023-09-23T03:00:00:Z","depth":0,"parameterNumber":3,"parameterNumberName":"V-component_of_WINDS"},"data":[0,0,0,0,0,0,0,0,0,0,0,0,0,0,0,0,0,0,0,0,0,0,0,0,0,0,0,0,0,0,0,0,0,0,0,0,0,0,0,0,0,0,0,0,0,0,0,0,0,0,0,0,0,0,0,0,0,0,-1.8331,-1.833,0,-1.8261,-1.826,-1.8259,-1.8182,-1.8181,-1.818,-1.8179,-1.8105,-1.8104,-1.8103,0,0,0,0,0,0,0,0,0,0,0,0,0,-1.8398,-1.8397,-1.8331,-1.833,-1.8329,-1.8261,-1.826,-1.8259,-1.8182,-1.8181,-1.8179,-1.8178,-1.8105,-1.8104,-1.8103,0,0,0,0,0,0,0,0,0,0,0,0,0,-1.8352,-1.8397,-1.8331,-1.8283,-1.8278,-1.8261,-1.826,-1.8259,-1.8182,-1.8181,-1.8179,-1.8178,-1.8105,-1.8104,-1.8103,-1.8127,0,0,-1.8098,-1.8098,0,0,0,0,0,0,0,0,-1.8355,-1.835,-1.8291,-1.8286,-1.8281,-1.8229,-1.8256,-1.8215,-1.8183,-1.8219,-1.8179,-1.8177,-1.8147,-1.8142,-1.8133,-1.8124,-1.8121,-1.8098,-1.8097,-1.8097,-1.8096,0,0,0,0,0,0,0,-1.8358,-1.8352,-1.8303,-1.829,-1.8284,-1.8264,-1.8256,-1.8248,-1.8193,-1.8215,-1.821,-1.8202,-1.8144,-1.8134,-1.813,-1.812,-1.8098,-1.8097,-1.8096,-1.8096,-1.8129,-1.813,0,0,0,0,0,0,-1.8369,-1.8356,-1.8305,-1.8301,-1.8314,-1.8264,-1.8255,-1.8247,-1.8193,-1.8183,-1.8204,-1.8199,-1.8137,-1.8132,-1.8127,-1.8154,-1.8097,-1.8096,-1.8095,-1.8127,-1.8129,-1.8131,0,0,0,0,0,0,-1.8371,-1.8365,-1.8308,-1.8327,-1.8318,-1.8265,-1.8256,-1.8246,-1.8236,-1.8184,-1.8174,-1.8204,-1.8136,-1.8129,-1.8128,-1.815,-1.8095,-1.8094,-1.8125,-1.8128,-1.813,-1.8206,0,0,0,0,0,0,-1.8373,-1.8366,-1.8375,-1.8328,-1.8317,-1.8311,-1.8258,-1.8246,-1.8235,-1.8228,-1.8182,-1.8173,-1.8134,-1.8131,-1.8127,-1.8147,-1.8093,-1.8123,-1.8126,-1.8129,-1.8202,-1.8211,-1.8219,0,0,0,0,0,-1.8375,-1.8399,-1.8376,-1.8371,-1.8328,-1.8313,-1.8307,-1.8262,-1.8237,-1.8245,-1.8212,-1.8174,-1.8148,-1.8131,-1.8126,-1.8147,-1.8121,-1.8125,-1.8129,-1.8198,-1.8209,-1.8219,0,0,0,0,0,0,-1.845,-1.8392,-1.8366,-1.8375,-1.8349,-1.83,-1.8309,-1.8276,-1.8257,-1.8251,-1.8196,-1.8187,-1.8192,-1.8169,-1.8151,-1.8168,-1.8129,-1.8132,-1.8183,-1.8194,-1.8203,-1.8209,-1.8091,0,0,0,0,0,-1.8467,-1.846,-1.841,-1.8422,-1.8411,-1.8363,-1.8354,-1.8323,-1.8294,-1.8282,-1.8249,-1.8222,-1.8207,-1.8199,-1.8183,-1.8198,-1.8187,-1.8209,-1.8218,-1.8225,-1.8229,-1.8236,-1.8245,-1.8144,-1.8144,-1.8143,0,0,-1.8503,-1.8471,-1.847,-1.8437,-1.8413,-1.8407,-1.8354,-1.8349,-1.8344,-1.8281,-1.8279,-1.8253,-1.8219,-1.8227,-1.8228,-1.8207,-1.8254,-1.823,-1.8237,-1.8236,-1.8241,-1.825,-1.8259,-1.8146,-1.8146,-1.8145,0,0,-1.8566,-1.8541,-1.8549,-1.8527,-1.8492,-1.846,-1.8462,-1.8417,-1.8398,-1.8395,-1.8348,-1.8341,-1.8317,-1.8295,-1.8281,-1.8337,-1.8302,-1.8333,-1.8379,-1.8387,-1.8395,-1.8402,-1.8423,-1.8431,-1.8336,-1.8336,-1.8337,0,-1.8615,-1.8604,-1.8557,-1.8556,-1.8543,-1.8487,-1.8495,-1.8475,-1.8437,-1.8429,-1.8407,-1.8377,-1.835,-1.8352,-1.8366,-1.8356,-1.8357,-1.8338,-1.8398,-1.8404,-1.841,-1.8429,-1.8437,-1.8341,-1.834,-1.834,-1.8339,0,-1.8667,-1.866,-1.8671,-1.8637,-1.8625,-1.8629,-1.8582,-1.8575,-1.8545,-1.8515,-1.8513,-1.8478,-1.8455,-1.8453,-1.8422,-1.8451,-1.8439,-1.8408,-1.8368,-1.8424,-1.8442,-1.8449,-1.8347,-1.8345,-1.8344,-1.8343,0,0,-1.8775,-1.8715,-1.872,-1.8704,-1.8662,-1.8656,-1.8657,-1.8635,-1.8631,-1.8606,-1.8606,-1.8588,-1.8559,-1.8543,-1.851,-1.8516,-1.8564,-1.8484,-1.8482,-1.8501,-1.8594,-1.8619,-1.8628,-1.854,-1.8541,-1.8542,-1.8597,0,-1.8831,-1.883,-1.8788,-1.8799,-1.8793,-1.8739,-1.874,-1.8714,-1.8686,-1.8677,-1.8645,-1.8634,-1.8596,-1.8586,-1.859,-1.8557,-1.8582,-1.8552,-1.8539,-1.8539,-1.8551,-1.8637,-1.8662,-1.8716,-1.8603,-1.8604,-1.8605,0,-1.8896,-1.8877,-1.8888,-1.8847,-1.8842,-1.8844,-1.8821,-1.8812,-1.8782,-1.8761,-1.8744,-1.8706,-1.8704,-1.8666,-1.8663,-1.8644,-1.8636,-1.8619,-1.862,-1.8618,-1.8577,-1.8638,-1.8732,-1.8741,-1.8615,-1.8614,-1.8614,0,-1.8976,-1.8952,-1.8956,-1.8944,-1.8895,-1.8898,-1.8878,-1.8846,-1.8836,-1.8815,-1.8808,-1.8787,-1.8776,-1.8761,-1.8718,-1.8694,-1.872,-1.8678,-1.8703,-1.8704,-1.8712,-1.8712,-1.8808,-1.8705,-1.8705,-1.8705,-1.8705,0,-1.9044,-1.9053,-1.8991,-1.8994,-1.9002,-1.8953,-1.8963,-1.8937,-1.891,-1.8906,-1.8857,-1.8855,-1.8799,-1.879,-1.8756,-1.8759,-1.8754,-1.8737,-1.8729,-1.8743,-1.8745,-1.8737,-1.8733,-1.8707,-1.8706,-1.8706,-1.8706,0,-1.9134,-1.9093,-1.9094,-1.9048,-1.9037,-1.9045,-1.9006,-1.9006,-1.8975,-1.8972,-1.8968,-1.8919,-1.8907,-1.8863,-1.8838,-1.8816,-1.883,-1.8812,-1.8841,-1.8835,-1.8863,-1.8862,-1.8958,-1.8968,-1.8858,-1.8859,-1.886,0,-1.9181,-1.9186,-1.9142,-1.9137,-1.9119,-1.911,-1.91,-1.9052,-1.9043,-1.901,-1.9014,-1.8998,-1.8982,-1.8964,-1.8926,-1.8908,-1.889,-1.8925,-1.8887,-1.8901,-1.8892,-1.8893,-1.8893,-1.8934,-1.8935,-1.8936,-1.8937,0,-1.9268,-1.9248,-1.9235,-1.9216,-1.9205,-1.9188,-1.9167,-1.9165,-1.9111,-1.9104,-1.9091,-1.9079,-1.9055,-1.9039,-1.9015,-1.8993,-1.8957,-1.8949,-1.8954,-1.8969,-1.8986,-1.8979,-1.8864,-1.8948,-1.8947,-1.8946,-1.8945,-1.8945,-1.9338,-1.9342,-1.9311,-1.9299,-1.9279,-1.9261,-1.9259,-1.9229,-1.9217,-1.9195,-1.9167,-1.9157,-1.9127,-1.9091,-1.9072,-1.9064,-1.9044,-1.9051,-1.9052,-1.9055,-1.9063,-1.8987,-1.9059,-1.9058,-1.9058,-1.9058,-1.9057,0,-1.9425,-1.9403,-1.9392,-1.9365,-1.9356,-1.9323,-1.9298,-1.9293,-1.9285,-1.926,-1.9246,-1.9232,-1.9216,-1.9178,-1.9159,-1.916,-1.9143,-1.9157,-1.9157,-1.9153,-1.9081,-1.9079,-1.9171,-1.9171,-1.9171,-1.9171,-1.9171,-1.9171,-1.9469,-1.9473,-1.9449,-1.9443,-1.942,-1.9411,-1.94,-1.9384,-1.9364,-1.935,-1.9338,-1.9313,-1.9283,-1.9261,-1.9246,-1.9235,-1.923,-1.925,-1.9234,-1.9168,-1.9157,-1.9147,-1.9145,-1.9249,-1.925,-1.9306,-1.9307,-1.9307]}]]